Date,TemperatureHighF,TemperatureAvgF,TemperatureLowF,DewpointHighF,DewpointAvgF,DewpointLowF,HumidityHigh,HumidityAvg,HumidityLow,PressureMaxIn,PressureMinIn,WindSpeedMaxMPH,WindSpeedAvgMPH,GustSpeedMaxMPH,PrecipitationSumIn
2013-1-1,15,6,-1,11,4,-5,93,88,77,30.72,30.55,2,0,3,0.00
2013-1-2,13,5,-1,10,2,-5,92,88,83,30.77,30.72,3,0,4,0.00
2013-1-3,17,5,-5,11,2,-8,92,85,72,30.75,30.63,2,0,4,0.00
2013-1-4,20,9,-1,12,5,-5,93,84,68,30.74,30.61,4,0,5,0.00
2013-1-5,22,11,1,15,8,-2,92,85,67,30.67,30.47,4,0,4,0.00
2013-1-6,30,18,10,21,15,7,95,85,68,30.46,30.26,3,1,4,0.00
2013-1-7,24,18,10,23,16,7,94,92,88,30.34,30.25,1,0,3,0.00
2013-1-8,35,29,23,32,27,22,96,94,89,30.33,30.25,8,0,12,0.21
2013-1-9,40,35,31,32,31,30,96,86,70,30.25,29.63,12,3,19,0.30
2013-1-10,30,21,16,29,19,13,96,91,87,29.83,29.60,4,1,11,0.30
2013-1-11,21,13,2,14,9,-2,92,85,71,30.27,29.84,1,0,4,0.00
2013-1-12,14,2,-10,7,-2,-14,90,83,65,30.50,30.27,2,0,2,0.00
2013-1-13,17,1,-10,6,-4,-14,91,82,58,30.64,30.49,2,0,3,0.00
2013-1-14,13,5,-5,9,2,-9,92,86,77,30.73,30.63,1,0,1,0.00
2013-1-15,26,15,8,17,12,5,94,86,68,30.83,30.73,2,0,2,0.00
2013-1-16,18,9,0,14,6,-3,93,88,82,30.91,30.83,1,0,2,0.00
2013-1-17,18,8,0,15,5,-3,93,88,79,30.95,30.79,0,0,1,0.00
2013-1-18,20,8,-2,15,6,-6,93,87,78,30.81,30.68,2,0,2,0.00
2013-1-19,22,10,-2,16,6,-5,95,86,76,30.83,30.71,2,0,3,0.00
2013-1-20,25,11,-3,16,7,-7,93,85,69,30.80,30.68,2,0,3,0.00
2013-1-21,26,14,-1,18,10,-5,95,85,68,30.72,30.53,1,0,2,0.00
2013-1-22,25,11,-2,19,8,-5,93,86,75,30.60,30.45,2,0,3,0.00
2013-1-23,36,19,4,32,16,1,94,86,70,30.50,30.30,8,1,15,0.00
2013-1-24,38,33,31,34,32,31,97,93,83,30.35,30.23,7,1,8,0.01
2013-1-25,37,34,32,35,33,31,97,96,93,30.27,29.96,12,1,12,0.58
2013-1-26,37,32,26,35,31,26,98,95,92,30.02,29.80,8,1,10,0.18
2013-1-27,32,21,14,25,18,12,96,88,67,30.06,29.89,3,0,5,0.18
2013-1-28,24,18,9,21,16,7,94,91,81,30.11,30.00,4,1,7,0.00
2013-1-29,32,25,21,27,23,20,95,90,79,30.28,29.99,3,0,7,0.00
2013-1-30,36,29,24,32,27,23,97,92,79,30.35,30.26,4,0,4,0.00
2013-1-31,36,30,25,32,29,24,97,94,85,30.39,30.29,2,0,3,0.00